HIMAWARI-9

Last updated on Thu Oct 30 2025 00:02:23 GMT+0000 (Coordinated Universal Time)

1 41836U 16064A 25302.53377932 -.00000264 00000+0 00000+0 0 9991 2 41836 0.0441 71.2591 0001120 128.9069 170.9096 1.00272632 32894
UTC large
Height (km)
Speed (km/s)
/
Latitude / Longitude
Inclination (degrees)
Orbital Period (minutes)
Azimuth
Elevation
Range (km)
Doppler Factor

Next 0 passes for location: London (51.5072 / 0.1276)

Sorry there are no passes over London.